Time,TemperatureF,DewpointF,PressureIn,WindDirection,WindDirectionDegrees,WindSpeedMPH,WindSpeedGustMPH,Humidity,HourlyPrecipIn,Conditions,Clouds,dailyrainin,SoftwareType,DateUTC
2013-03-10 01:00:00,41.0,31.0,30.08,SSE,160,6.0,-999.0,67,-99.99,,,-99.99,,2013-03-10 06:00:00,
2013-03-10 01:31:00,41.0,31.0,30.08,SSE,160,6.0,-999.0,67,-99.99,,,-99.99,,2013-03-10 06:31:00,
2013-03-10 01:41:00,41.0,31.0,30.08,SSE,160,6.0,-999.0,67,-99.99,,,-99.99,,2013-03-10 06:41:00,
2013-03-10 01:51:00,41.0,31.0,30.08,SSE,160,6.0,-999.0,67,-99.99,,,-99.99,,2013-03-10 06:51:00,
2013-03-10 05:00:00,43.0,31.0,30.02,SSE,160,5.0,-999.0,62,-99.99,,,-99.99,,2013-03-10 09:00:00,
2013-03-10 05:21:00,43.0,31.0,30.02,SSE,160,5.0,-999.0,62,-99.99,,,-99.99,,2013-03-10 09:21:00,
2013-03-10 05:31:00,43.0,31.0,30.02,SSE,160,5.0,-999.0,62,-99.99,,,-99.99,,2013-03-10 09:31:00,
2013-03-10 05:41:00,43.0,31.0,30.02,SSE,160,5.0,-999.0,62,-99.99,,,-99.99,,2013-03-10 09:41:00,
2013-03-10 05:51:00,43.0,31.0,30.02,SSE,160,5.0,-999.0,62,-99.99,,,-99.99,,2013-03-10 09:51:00,
2013-03-10 08:00:00,45.0,31.0,29.99,SSE,160,8.0,-999.0,57,-99.99,,,-99.99,,2013-03-10 12:00:00,
2013-03-10 08:21:00,45.0,31.0,29.99,SSE,160,8.0,-999.0,57,-99.99,,,-99.99,,2013-03-10 12:21:00,
2013-03-10 08:31:00,45.0,31.0,29.99,SSE,160,8.0,-999.0,57,-99.99,,,-99.99,,2013-03-10 12:31:00,
2013-03-10 08:41:00,45.0,31.0,29.99,SSE,160,8.0,-999.0,57,-99.99,,,-99.99,,2013-03-10 12:41:00,
2013-03-10 08:51:00,45.0,31.0,29.99,SSE,160,8.0,-999.0,57,-99.99,,,-99.99,,2013-03-10 12:51:00,
2013-03-10 11:00:00,50.0,35.0,29.98,North,0,0.0,-999.0,56,-99.99,,,-99.99,,2013-03-10 15:00:00,
2013-03-10 11:21:00,50.0,35.0,29.98,North,0,0.0,-999.0,56,-99.99,,,-99.99,,2013-03-10 15:21:00,
2013-03-10 11:31:00,50.0,35.0,29.98,North,0,0.0,-999.0,56,-99.99,,,-99.99,,2013-03-10 15:31:00,
2013-03-10 11:41:00,50.0,35.0,29.98,North,0,0.0,-999.0,56,-99.99,,,-99.99,,2013-03-10 15:41:00,
2013-03-10 11:51:00,50.0,35.0,29.98,North,0,0.0,-999.0,56,-99.99,,,-99.99,,2013-03-10 15:51:00,
2013-03-10 14:00:00,55.0,39.0,29.93,South,180,16.0,-999.0,55,-99.99,,,-99.99,,2013-03-10 18:00:00,
2013-03-10 14:21:00,55.0,39.0,29.93,South,180,16.0,-999.0,55,-99.99,,,-99.99,,2013-03-10 18:21:00,
2013-03-10 14:31:00,55.0,39.0,29.93,South,180,16.0,-999.0,55,-99.99,,,-99.99,,2013-03-10 18:31:00,
2013-03-10 14:41:00,55.0,39.0,29.93,South,180,16.0,-999.0,55,-99.99,,,-99.99,,2013-03-10 18:41:00,
2013-03-10 14:52:00,55.0,39.0,29.93,South,180,16.0,-999.0,55,-99.99,,,-99.99,,2013-03-10 18:52:00,
2013-03-10 17:00:00,59.0,40.0,29.92,South,190,14.0,-999.0,49,-99.99,,,-99.99,,2013-03-10 21:00:00,
2013-03-10 17:22:00,59.0,40.0,29.92,South,190,14.0,-999.0,49,-99.99,,,-99.99,,2013-03-10 21:22:00,
2013-03-10 17:31:00,59.0,40.0,29.92,South,190,14.0,-999.0,49,-99.99,,,-99.99,,2013-03-10 21:31:00,
2013-03-10 17:41:00,59.0,40.0,29.92,South,190,14.0,-999.0,49,-99.99,,,-99.99,,2013-03-10 21:41:00,
2013-03-10 17:51:00,59.0,40.0,29.92,South,190,14.0,-999.0,49,-99.99,,,-99.99,,2013-03-10 21:51:00,
2013-03-10 20:21:00,55.0,42.0,29.91,SSE,150,6.0,-999.0,60,-99.99,,,-99.99,,2013-03-11 00:21:00,
2013-03-10 20:31:00,55.0,42.0,29.91,SSE,150,6.0,-999.0,60,-99.99,,,-99.99,,2013-03-11 00:31:00,
2013-03-10 20:41:00,55.0,42.0,29.91,SSE,150,6.0,-999.0,60,-99.99,,,-99.99,,2013-03-11 00:41:00,
2013-03-10 20:51:00,55.0,42.0,29.91,SSE,150,6.0,-999.0,60,-99.99,,,-99.99,,2013-03-11 00:51:00,
2013-03-10 23:00:00,51.0,39.0,29.88,SSE,160,2.0,-999.0,63,-99.99,,,-99.99,,2013-03-11 03:00:00,
2013-03-10 23:21:00,51.0,39.0,29.88,SSE,160,2.0,-999.0,63,-99.99,,,-99.99,,2013-03-11 03:21:00,
2013-03-10 23:31:00,51.0,39.0,29.88,SSE,160,2.0,-999.0,63,-99.99,,,-99.99,,2013-03-11 03:31:00,
2013-03-10 23:41:00,51.0,39.0,29.88,SSE,160,2.0,-999.0,63,-99.99,,,-99.99,,2013-03-11 03:41:00,
2013-03-10 23:51:00,51.0,39.0,29.88,SSE,160,2.0,-999.0,63,-99.99,,,-99.99,,2013-03-11 03:51:00,